Date String (YYYY-MM-DD hh:mm:ss) UTC,Instrument flags,absolute air pressure of the measurement (hPa),sample flow rate (lpm),inlet stack bypass flow (lpm),air temperature of the measurement (°C),ambient temperature measured by the external sensor (°C),aerosol sample conditioner tube jacket temperature (°C),OPC LED temperature (°C),internal box temperature (°C),relative humidity of the measurement (%),span deviation,mass concentration of particles derived from Lorenz-Mie calculation of OPC scattering (μg/m³),mass concentration of particles derived from Lorenz-Mie calculation of OPC scattering (μg/m³),mass concentration of particles derived from Lorenz-Mie calculation of OPC scattering (μg/m³)
DateTimeUTC,F1_M11,P_M11,Q1_M11,Q2_M11,T1_M11,T2_M11,T3_M11,T4_M11,T5_M11,U1_M11,ZSPAN_M11,X2_M11,X0_M11,X1_M11
2023-11-01 22:00:00,SystemResetWarning,0830.4,5.00,000.00,025.9,025.1,000.0,034.1,027.3,14.1,0000.0,0004.60,0009.33,0004.06
2023-11-01 22:01:00,SystemResetWarning,0830.6,5.00,000.00,025.9,025.1,000.0,034.1,027.3,14.1,0000.0,0004.52,0009.30,0004.00
2023-11-01 22:02:00,SystemResetWarning,0830.5,5.01,000.00,025.9,025.1,000.0,034.1,027.3,14.1,0000.0,0004.53,0009.28,0004.00
2023-11-01 22:03:00,SystemResetWarning,0830.4,5.00,000.00,025.9,025.1,000.0,034.1,027.4,14.2,0000.0,0004.56,0009.48,0004.03
2023-11-01 22:04:00,SystemResetWarning,0830.4,5.01,000.00,025.9,025.1,000.0,034.2,027.4,14.2,0000.0,0004.69,0009.82,0004.12
2023-11-01 22:05:00,SystemResetWarning,0830.4,5.00,000.00,025.9,025.1,000.0,034.2,027.4,14.3,0000.0,0004.82,0009.77,0004.23
2023-11-01 22:06:00,SystemResetWarning,0830.6,5.00,000.00,025.9,025.1,000.0,034.2,027.4,14.4,0000.2,0005.03,0009.92,0004.39
2023-11-01 22:07:00,SystemResetWarning,0830.4,4.99,000.00,025.9,025.1,000.0,034.2,027.4,14.4,0000.4,0005.17,0010.11,0004.49
2023-11-01 22:08:00,SystemResetWarning,0830.5,5.01,000.00,025.9,025.2,000.0,034.2,027.4,14.4,0000.7,0005.22,0010.15,0004.52
2023-11-01 22:09:00,SystemResetWarning,0830.5,5.01,000.00,026.0,025.2,000.0,034.2,027.4,14.5,0000.9,0005.40,0010.26,0004.69
2023-11-01 22:10:00,SystemResetWarning,0830.6,5.01,000.00,026.0,025.2,000.0,034.2,027.4,14.8,0000.6,0005.57,0010.47,0004.82
2023-11-01 22:11:00,SystemResetWarning,0830.6,4.98,000.00,026.0,025.2,000.0,034.2,027.4,14.8,0000.9,0005.90,0011.38,0005.07
2023-11-01 22:12:00,SystemResetWarning,0830.6,5.01,000.00,026.0,025.2,000.0,034.3,027.4,14.8,0001.5,0006.14,0011.54,0005.29
2023-11-01 22:13:00,SystemResetWarning,0830.6,5.01,000.00,026.0,025.2,000.0,034.3,027.5,14.6,0001.3,0006.28,0011.53,0005.42
2023-11-01 22:14:00,SystemResetWarning,0830.6,4.99,000.00,026.0,025.2,000.0,034.3,027.4,14.3,0001.4,0006.49,0011.61,0005.56
2023-11-01 22:15:00,SystemResetWarning,0830.6,4.98,000.00,026.0,025.2,000.0,034.3,027.5,14.1,0001.3,0006.60,0012.22,0005.64
2023-11-01 22:16:00,SystemResetWarning,0830.6,5.01,000.00,026.1,025.3,000.0,034.3,027.5,14.0,0002.9,0006.68,0012.39,0005.68
2023-11-01 22:17:00,SystemResetWarning,0830.6,5.01,000.00,026.1,025.3,000.0,034.3,027.5,14.0,0003.8,0006.74,0012.61,0005.74
2023-11-01 22:18:00,SystemResetWarning,0830.6,4.99,000.00,026.1,025.3,000.0,034.3,027.5,14.0,0003.7,0006.95,0013.27,0005.91
2023-11-01 22:19:00,SystemResetWarning,0830.6,4.99,000.00,026.1,025.3,000.0,034.3,027.5,14.0,0002.1,0007.28,0014.08,0006.18
2023-11-01 22:20:00,SystemResetWarning,0830.6,4.99,000.00,026.1,025.3,000.0,034.3,027.6,14.0,0000.6,0007.49,0014.45,0006.36
2023-11-01 22:21:00,SystemResetWarning,0830.6,5.00,000.00,026.1,025.3,000.0,034.4,027.5,14.0,0000.8,0007.67,0015.08,0006.56
2023-11-01 22:22:00,SystemResetWarning,0830.6,5.01,000.00,026.1,025.3,000.0,034.4,027.6,14.1,0000.9,0007.81,0014.86,0006.71
2023-11-01 22:23:00,SystemResetWarning,0830.6,5.00,000.00,026.1,025.3,000.0,034.4,027.5,14.0,0000.6,0007.94,0014.93,0006.82
2023-11-01 22:24:00,SystemResetWarning,0830.6,4.99,000.00,026.1,025.3,000.0,034.4,027.6,14.0,0000.6,0008.02,0015.09,0006.91
2023-11-01 22:25:00,SystemResetWarning,0830.6,4.99,000.00,026.1,025.3,000.0,034.4,027.5,13.8,0000.3,0008.06,0015.26,0006.98
2023-11-01 22:26:00,SystemResetWarning,0830.6,5.02,000.00,026.2,025.3,000.0,034.4,027.6,13.8,0000.0,0008.12,0015.12,0007.04
2023-11-01 22:27:00,SystemResetWarning,0830.7,5.01,000.00,026.2,025.3,000.0,034.4,027.6,13.9,-000.3,0008.17,0015.23,0007.11
2023-11-01 22:28:00,SystemResetWarning,0830.7,4.98,000.00,026.2,025.3,000.0,034.4,027.6,13.9,-000.6,0008.20,0015.21,0007.15
2023-11-01 22:29:00,SystemResetWarning,0830.7,5.01,000.00,026.2,025.3,000.0,034.4,027.6,13.9,-000.3,0008.15,0015.09,0007.15
2023-11-01 22:30:00,SystemResetWarning,0830.7,5.01,000.00,026.2,025.3,000.0,034.5,027.6,13.9,0000.8,0008.01,0014.39,0007.08
2023-11-01 22:31:00,SystemResetWarning,0830.7,5.00,000.00,026.2,025.3,000.0,034.5,027.6,13.9,0001.7,0007.92,0014.57,0007.01
2023-11-01 22:32:00,SystemResetWarning,0830.7,4.99,000.00,026.2,025.3,000.0,034.5,027.6,13.8,0001.8,0007.79,0014.14,0006.90
2023-11-01 22:33:00,SystemResetWarning,0830.7,4.99,000.00,026.2,025.3,000.0,034.5,027.6,13.7,0001.4,0007.67,0013.87,0006.78
2023-11-01 22:34:00,SystemResetWarning,0830.7,5.01,000.00,026.2,025.3,000.0,034.5,027.6,13.7,0001.4,0007.50,0013.61,0006.62
2023-11-01 22:35:00,SystemResetWarning,0830.7,5.01,000.00,026.2,025.4,000.0,034.5,027.6,13.7,0000.3,0007.35,0013.07,0006.49
2023-11-01 22:36:00,SystemResetWarning,0830.7,4.99,000.00,026.2,025.4,000.0,034.5,027.7,13.8,0000.3,0007.21,0013.00,0006.36
2023-11-01 22:37:00,SystemResetWarning,0830.7,4.99,000.00,026.2,025.4,000.0,034.5,027.7,13.8,0000.3,0007.04,0012.93,0006.26
2023-11-01 22:38:00,SystemResetWarning,0830.7,5.00,000.00,026.2,025.4,000.0,034.5,027.7,13.8,0000.4,0006.92,0012.52,0006.17
2023-11-01 22:39:00,SystemResetWarning,0830.7,5.01,000.00,026.2,025.4,000.0,034.5,027.7,13.8,0000.5,0006.85,0013.06,0006.11
2023-11-01 22:40:00,SystemResetWarning,0830.7,5.00,000.00,026.2,025.4,000.0,034.5,027.7,13.8,-000.2,0006.82,0013.30,0006.10
2023-11-01 22:41:00,SystemResetWarning,0830.7,4.99,000.00,026.2,025.4,000.0,034.5,027.7,13.9,0001.2,0006.85,0013.63,0006.10
2023-11-01 22:42:00,SystemResetWarning,0830.7,4.99,000.00,026.3,025.4,000.0,034.6,027.7,14.0,0001.8,0006.92,0013.82,0006.14
2023-11-01 22:43:00,SystemResetWarning,0830.7,5.02,000.00,026.3,025.4,000.0,034.6,027.7,14.0,0002.1,0006.97,0013.98,0006.19
2023-11-01 22:44:00,SystemResetWarning,0830.7,5.00,000.00,026.3,025.4,000.0,034.6,027.7,14.0,0003.7,0007.01,0014.71,0006.24
2023-11-01 22:45:00,SystemResetWarning,0830.7,4.98,000.00,026.3,025.4,000.0,034.6,027.7,13.9,0005.6,0007.07,0015.27,0006.31
2023-11-01 22:46:00,SystemResetWarning,0830.7,4.99,000.00,026.3,025.4,000.0,034.6,027.7,13.9,0006.5,0007.14,0015.74,0006.35
2023-11-01 22:47:00,SystemResetWarning,0830.7,5.01,000.00,026.3,025.4,000.0,034.6,027.7,13.8,0006.6,0007.22,0016.03,0006.40
2023-11-01 22:48:00,SystemResetWarning,0830.8,5.01,000.00,026.3,025.4,000.0,034.6,027.7,13.7,0006.6,0007.30,0016.12,0006.46
2023-11-01 22:49:00,SystemResetWarning,0830.8,5.00,000.00,026.3,025.4,000.0,034.6,027.7,13.5,0006.5,0007.37,0016.73,0006.49
2023-11-01 22:50:00,SystemResetWarning,0830.8,4.99,000.00,026.3,025.4,000.0,034.6,027.7,13.6,0006.0,0007.39,0017.46,0006.49
2023-11-01 22:51:00,SystemResetWarning,0830.8,5.01,000.00,026.3,025.4,000.0,034.6,027.8,13.6,0005.6,0007.43,0017.82,0006.49
2023-11-01 22:52:00,SystemResetWarning,0830.8,4.99,000.00,026.3,025.4,000.0,034.6,027.8,13.4,0005.7,0007.41,0017.80,0006.46
2023-11-01 22:53:00,SystemResetWarning,0830.9,5.00,000.00,026.3,025.4,000.0,034.6,027.8,12.7,0005.4,0007.36,0017.60,0006.45
2023-11-01 22:54:00,SystemResetWarning,0830.8,5.00,000.00,026.3,025.4,000.0,034.6,027.7,12.8,0004.6,0007.35,0018.11,0006.45
2023-11-01 22:55:00,SystemResetWarning,0830.9,4.99,000.00,026.3,025.4,000.0,034.7,027.7,14.2,0004.2,0007.36,0018.88,0006.46
2023-11-01 22:56:00,SystemResetWarning,0830.9,5.02,000.00,026.3,025.4,000.0,034.7,027.7,15.1,0003.2,0007.40,0018.61,0006.46
2023-11-01 22:57:00,SystemResetWarning,0830.9,4.99,000.00,026.3,025.4,000.0,034.7,027.7,14.4,0002.5,0007.45,0018.76,0006.48
2023-11-01 22:58:00,SystemResetWarning,0830.9,4.99,000.00,026.3,025.4,000.0,034.7,027.7,14.4,0002.0,0007.52,0019.33,0006.50
2023-11-01 22:59:00,SystemResetWarning,0830.8,5.00,000.00,026.3,025.4,000.0,034.7,027.8,14.5,0002.0,0007.47,0018.70,0006.49
